Time,TemperatureF,DewpointF,PressureIn,WindDirection,WindDirectionDegrees,WindSpeedMPH,WindSpeedGustMPH,Humidity,HourlyPrecipIn,Conditions,Clouds,dailyrainin,SoftwareType,DateUTC
2013-03-03 00:01:00,54.1,46.7,30.08,West,263,0.0,0.0,76,0.00,,,0.00,Wunderground v.1.15,2013-03-03 08:01:00,
2013-03-03 00:06:00,54.0,47.0,30.08,West,263,0.0,0.0,77,0.00,,,0.00,Wunderground v.1.15,2013-03-03 08:06:00,
2013-03-03 00:13:00,53.9,46.9,30.08,West,263,0.0,0.0,77,0.00,,,0.00,Wunderground v.1.15,2013-03-03 08:13:00,
2013-03-03 00:19:00,53.9,47.0,30.07,West,263,0.0,-999.0,77,-99.99,,,0.00,weatherlink.com 1.10,2013-03-03 08:19:00,
2013-03-03 00:25:00,53.8,46.8,30.07,West,263,0.0,0.0,77,0.00,,,0.00,Wunderground v.1.15,2013-03-03 08:25:00,
2013-03-03 00:31:00,53.8,47.1,30.07,West,263,0.0,0.0,78,0.00,,,0.00,Wunderground v.1.15,2013-03-03 08:31:00,
2013-03-03 00:37:00,53.7,47.0,30.07,West,263,0.0,0.0,78,0.00,,,0.00,Wunderground v.1.15,2013-03-03 08:37:00,
2013-03-03 00:42:00,53.7,47.3,30.07,West,263,0.0,0.0,79,0.00,,,0.00,Wunderground v.1.15,2013-03-03 08:42:00,
2013-03-03 00:50:00,53.6,48.0,30.07,West,263,0.0,-999.0,81,-99.99,,,0.00,weatherlink.com 1.10,2013-03-03 08:50:00,
2013-03-03 00:57:00,53.6,47.9,30.07,West,263,0.0,0.0,81,0.00,,,0.00,Wunderground v.1.15,2013-03-03 08:57:00,
2013-03-03 01:03:00,53.6,47.9,30.07,West,263,0.0,0.0,81,0.00,,,0.00,Wunderground v.1.15,2013-03-03 09:03:00,
2013-03-03 01:11:00,53.7,47.7,30.07,West,263,0.0,0.0,80,0.00,,,0.00,Wunderground v.1.15,2013-03-03 09:11:00,
2013-03-03 01:17:00,53.8,47.8,30.06,West,263,0.0,1.0,80,0.00,,,0.00,Wunderground v.1.15,2013-03-03 09:17:00,
2013-03-03 01:23:00,53.8,48.1,30.06,West,263,0.0,0.0,81,0.00,,,0.00,Wunderground v.1.15,2013-03-03 09:23:00,
2013-03-03 01:30:00,53.9,47.9,30.07,West,263,0.0,1.0,80,0.00,,,0.00,Wunderground v.1.15,2013-03-03 09:30:00,
2013-03-03 01:36:00,53.9,48.0,30.07,West,263,0.0,-999.0,80,-99.99,,,0.00,weatherlink.com 1.10,2013-03-03 09:36:00,
2013-03-03 01:41:00,53.9,47.9,30.07,West,263,0.0,0.0,80,0.00,,,0.00,Wunderground v.1.15,2013-03-03 09:41:00,
2013-03-03 01:47:00,53.9,47.9,30.06,West,263,0.0,0.0,80,0.00,,,0.00,Wunderground v.1.15,2013-03-03 09:47:00,
2013-03-03 01:52:00,53.8,48.0,30.06,West,263,0.0,-999.0,80,-99.99,,,0.00,weatherlink.com 1.10,2013-03-03 09:52:00,
2013-03-03 01:57:00,53.7,47.7,30.06,West,263,0.0,0.0,80,0.00,,,0.00,Wunderground v.1.15,2013-03-03 09:57:00,
2013-03-03 02:03:00,53.7,48.0,30.06,West,263,0.0,0.0,81,0.00,,,0.00,Wunderground v.1.15,2013-03-03 10:03:00,
2013-03-03 02:11:00,53.7,48.0,30.06,West,263,0.0,0.0,81,0.00,,,0.00,Wunderground v.1.15,2013-03-03 10:11:00,
2013-03-03 02:17:00,53.6,47.6,30.06,West,263,0.0,0.0,80,0.00,,,0.00,Wunderground v.1.15,2013-03-03 10:17:00,
2013-03-03 02:23:00,53.5,47.8,30.05,West,263,0.0,0.0,81,0.00,,,0.00,Wunderground v.1.15,2013-03-03 10:23:00,
2013-03-03 02:31:00,53.4,47.7,30.06,West,263,0.0,0.0,81,0.00,,,0.00,Wunderground v.1.15,2013-03-03 10:31:00,
2013-03-03 02:37:00,53.4,48.0,30.05,West,263,0.0,3.0,82,0.00,,,0.00,Wunderground v.1.15,2013-03-03 10:37:00,
2013-03-03 02:43:00,53.5,48.1,30.05,West,263,0.0,0.0,82,0.00,,,0.00,Wunderground v.1.15,2013-03-03 10:43:00,
2013-03-03 02:51:00,53.5,48.5,30.05,West,263,0.0,0.0,83,0.00,,,0.00,Wunderground v.1.15,2013-03-03 10:51:00,
2013-03-03 02:57:00,53.6,48.6,30.05,West,263,0.0,0.0,83,0.00,,,0.00,Wunderground v.1.15,2013-03-03 10:57:00,
2013-03-03 03:02:00,53.7,48.7,30.05,West,263,0.0,0.0,83,0.00,,,0.00,Wunderground v.1.15,2013-03-03 11:02:00,
2013-03-03 03:08:00,53.7,49.0,30.04,West,263,0.0,-999.0,83,-99.99,,,0.00,weatherlink.com 1.10,2013-03-03 11:08:00,
2013-03-03 03:13:00,53.8,48.8,30.04,West,263,0.0,1.0,83,0.00,,,0.00,Wunderground v.1.15,2013-03-03 11:13:00,
2013-03-03 03:21:00,53.8,48.4,30.03,West,263,0.0,0.0,82,0.00,,,0.00,Wunderground v.1.15,2013-03-03 11:21:00,
2013-03-03 03:27:00,53.8,48.4,30.03,West,263,0.0,0.0,82,0.00,,,0.00,Wunderground v.1.15,2013-03-03 11:27:00,
2013-03-03 03:33:00,53.7,48.3,30.03,West,263,0.0,0.0,82,0.00,,,0.00,Wunderground v.1.15,2013-03-03 11:33:00,
2013-03-03 03:38:00,53.7,48.0,30.03,West,263,0.0,-999.0,82,-99.99,,,0.00,weatherlink.com 1.10,2013-03-03 11:38:00,
2013-03-03 03:43:00,53.5,48.1,30.03,West,263,0.0,0.0,82,0.00,,,0.00,Wunderground v.1.15,2013-03-03 11:43:00,
2013-03-03 03:50:00,53.4,48.0,30.03,West,263,0.0,0.0,82,0.00,,,0.00,Wunderground v.1.15,2013-03-03 11:50:00,
2013-03-03 03:57:00,53.3,47.9,30.03,West,263,0.0,0.0,82,0.00,,,0.00,Wunderground v.1.15,2013-03-03 11:57:00,
2013-03-03 04:03:00,53.1,47.4,30.03,West,263,0.0,0.0,81,0.00,,,0.00,Wunderground v.1.15,2013-03-03 12:03:00,
2013-03-03 04:08:00,53.0,47.0,30.03,West,263,0.0,-999.0,81,-99.99,,,0.00,weatherlink.com 1.10,2013-03-03 12:08:00,
2013-03-03 04:17:00,52.9,47.2,30.03,West,263,0.0,0.0,81,0.00,,,0.00,Wunderground v.1.15,2013-03-03 12:17:00,
2013-03-03 04:23:00,52.9,47.2,30.03,West,263,0.0,0.0,81,0.00,,,0.00,Wunderground v.1.15,2013-03-03 12:23:00,
2013-03-03 04:31:00,52.8,47.1,30.03,West,263,0.0,0.0,81,0.00,,,0.00,Wunderground v.1.15,2013-03-03 12:31:00,
2013-03-03 04:36:00,52.8,47.1,30.03,West,263,0.0,0.0,81,0.00,,,0.00,Wunderground v.1.15,2013-03-03 12:36:00,
2013-03-03 04:43:00,52.7,47.4,30.03,West,263,0.0,0.0,82,0.00,,,0.00,Wunderground v.1.15,2013-03-03 12:43:00,
2013-03-03 04:51:00,52.5,47.2,30.03,West,263,0.0,0.0,82,0.00,,,0.00,Wunderground v.1.15,2013-03-03 12:51:00,
2013-03-03 04:57:00,52.5,47.2,30.03,West,263,0.0,0.0,82,0.00,,,0.00,Wunderground v.1.15,2013-03-03 12:57:00,
2013-03-03 05:03:00,52.4,47.1,30.03,West,263,0.0,0.0,82,0.00,,,0.00,Wunderground v.1.15,2013-03-03 13:03:00,
2013-03-03 05:09:00,52.4,47.0,30.03,West,263,0.0,-999.0,83,-99.99,,,0.00,weatherlink.com 1.10,2013-03-03 13:09:00,
2013-03-03 05:17:00,52.3,47.3,30.03,West,263,0.0,0.0,83,0.00,,,0.00,Wunderground v.1.15,2013-03-03 13:17:00,
2013-03-03 05:23:00,52.2,47.5,30.04,West,263,0.0,0.0,84,0.00,,,0.00,Wunderground v.1.15,2013-03-03 13:23:00,
2013-03-03 05:31:00,52.2,47.5,30.04,West,263,0.0,0.0,84,0.00,,,0.00,Wunderground v.1.15,2013-03-03 13:31:00,
2013-03-03 05:37:00,52.1,47.7,30.04,West,263,0.0,0.0,85,0.00,,,0.00,Wunderground v.1.15,2013-03-03 13:37:00,
2013-03-03 05:43:00,52.1,47.7,30.04,West,263,0.0,0.0,85,0.00,,,0.00,Wunderground v.1.15,2013-03-03 13:43:00,
2013-03-03 05:51:00,52.1,47.7,30.03,West,263,0.0,0.0,85,0.00,,,0.00,Wunderground v.1.15,2013-03-03 13:51:00,
2013-03-03 05:56:00,52.1,48.0,30.03,West,263,0.0,-999.0,85,-99.99,,,0.00,weatherlink.com 1.10,2013-03-03 13:56:00,
2013-03-03 06:01:00,52.1,47.7,30.03,West,263,0.0,0.0,85,0.00,,,0.00,Wunderground v.1.15,2013-03-03 14:01:00,
2013-03-03 06:07:00,52.0,47.6,30.03,West,263,0.0,0.0,85,0.00,,,0.00,Wunderground v.1.15,2013-03-03 14:07:00,
2013-03-03 06:13:00,51.9,47.5,30.03,West,263,0.0,0.0,85,0.00,,,0.00,Wunderground v.1.15,2013-03-03 14:13:00,
2013-03-03 06:21:00,51.8,47.4,30.03,West,263,0.0,0.0,85,0.00,,,0.00,Wunderground v.1.15,2013-03-03 14:21:00,
2013-03-03 06:26:00,51.7,47.0,30.03,West,263,0.0,-999.0,85,-99.99,,,0.00,weatherlink.com 1.10,2013-03-03 14:26:00,
2013-03-03 06:33:00,51.5,47.5,30.03,West,263,0.0,0.0,86,0.00,,,0.00,Wunderground v.1.15,2013-03-03 14:33:00,
2013-03-03 06:40:00,51.4,47.0,30.02,West,263,0.0,-999.0,86,-99.99,,,0.00,weatherlink.com 1.10,2013-03-03 14:40:00,
2013-03-03 06:47:00,51.4,47.4,30.03,West,263,0.0,0.0,86,0.00,,,0.00,Wunderground v.1.15,2013-03-03 14:47:00,
2013-03-03 06:53:00,51.3,47.6,30.02,West,263,0.0,0.0,87,0.00,,,0.00,Wunderground v.1.15,2013-03-03 14:53:00,
2013-03-03 07:01:00,51.2,47.5,30.02,West,263,0.0,0.0,87,0.00,,,0.00,Wunderground v.1.15,2013-03-03 15:01:00,
2013-03-03 07:07:00,51.2,47.5,30.02,West,263,0.0,0.0,87,0.00,,,0.00,Wunderground v.1.15,2013-03-03 15:07:00,
2013-03-03 07:13:00,51.2,47.5,30.02,West,263,0.0,0.0,87,0.00,,,0.00,Wunderground v.1.15,2013-03-03 15:13:00,
2013-03-03 07:21:00,51.3,47.6,30.03,West,263,0.0,0.0,87,0.00,,,0.00,Wunderground v.1.15,2013-03-03 15:21:00,
2013-03-03 07:27:00,51.5,47.8,30.03,West,263,0.0,2.0,87,0.00,,,0.00,Wunderground v.1.15,2013-03-03 15:27:00,
2013-03-03 07:33:00,51.8,47.7,30.03,West,263,0.0,0.0,86,0.00,,,0.00,Wunderground v.1.15,2013-03-03 15:33:00,
2013-03-03 07:40:00,52.0,47.9,30.03,West,263,0.0,0.0,86,0.00,,,0.00,Wunderground v.1.15,2013-03-03 15:40:00,
2013-03-03 07:47:00,52.2,48.1,30.03,West,263,0.0,0.0,86,0.00,,,0.00,Wunderground v.1.15,2013-03-03 15:47:00,
2013-03-03 07:53:00,52.5,48.1,30.03,West,263,0.0,0.0,85,0.00,,,0.00,Wunderground v.1.15,2013-03-03 15:53:00,
2013-03-03 08:00:00,52.8,48.1,30.03,West,263,0.0,0.0,84,0.00,,,0.00,Wunderground v.1.15,2013-03-03 16:00:00,
2013-03-03 08:07:00,53.1,48.4,30.03,West,263,0.0,0.0,84,0.00,,,0.00,Wunderground v.1.15,2013-03-03 16:07:00,
2013-03-03 08:12:00,53.3,48.0,30.02,West,263,0.0,-999.0,83,-99.99,,,0.00,weatherlink.com 1.10,2013-03-03 16:12:00,
2013-03-03 08:17:00,53.6,48.6,30.02,West,263,0.0,0.0,83,0.00,,,0.00,Wunderground v.1.15,2013-03-03 16:17:00,
2013-03-03 08:23:00,53.9,48.5,30.02,West,263,0.0,0.0,82,0.00,,,0.00,Wunderground v.1.15,2013-03-03 16:23:00,
2013-03-03 08:31:00,54.3,48.3,30.02,West,263,0.0,0.0,80,0.00,,,0.00,Wunderground v.1.15,2013-03-03 16:31:00,
2013-03-03 08:37:00,54.5,48.1,30.02,West,263,0.0,2.0,79,0.00,,,0.00,Wunderground v.1.15,2013-03-03 16:37:00,
2013-03-03 08:43:00,54.8,48.4,30.02,West,263,0.0,0.0,79,0.00,,,0.00,Wunderground v.1.15,2013-03-03 16:43:00,
2013-03-03 08:51:00,55.0,48.3,30.02,West,263,0.0,0.0,78,0.00,,,0.00,Wunderground v.1.15,2013-03-03 16:51:00,
2013-03-03 08:56:00,55.3,48.6,30.02,West,263,0.0,0.0,78,0.00,,,0.00,Wunderground v.1.15,2013-03-03 16:56:00,
2013-03-03 09:03:00,55.5,48.4,30.01,West,263,0.0,0.0,77,0.00,,,0.00,Wunderground v.1.15,2013-03-03 17:03:00,
2013-03-03 09:11:00,56.0,48.9,30.01,West,263,0.0,0.0,77,0.00,,,0.00,Wunderground v.1.15,2013-03-03 17:11:00,
2013-03-03 09:16:00,56.4,48.9,30.01,West,263,1.0,1.0,76,0.00,,,0.00,Wunderground v.1.15,2013-03-03 17:16:00,
2013-03-03 09:23:00,57.0,48.8,30.02,West,263,1.0,3.0,74,0.00,,,0.00,Wunderground v.1.15,2013-03-03 17:23:00,
2013-03-03 09:31:00,58.0,49.0,30.01,SSE,161,2.0,2.0,72,0.00,,,0.00,Wunderground v.1.15,2013-03-03 17:31:00,
2013-03-03 09:37:00,58.5,48.4,30.02,SSE,156,2.0,2.0,69,0.00,,,0.00,Wunderground v.1.15,2013-03-03 17:37:00,
2013-03-03 09:43:00,58.9,48.4,30.02,SSE,157,2.0,2.0,68,0.00,,,0.00,Wunderground v.1.15,2013-03-03 17:43:00,
2013-03-03 09:51:00,59.3,47.9,30.02,SSE,149,2.0,2.0,66,0.00,,,0.00,Wunderground v.1.15,2013-03-03 17:51:00,
2013-03-03 09:57:00,59.4,48.0,30.02,SSE,162,2.0,2.0,66,0.00,,,0.00,Wunderground v.1.15,2013-03-03 17:57:00,
2013-03-03 10:02:00,59.4,48.0,30.02,SSE,159,2.0,-999.0,66,-99.99,,,0.00,weatherlink.com 1.10,2013-03-03 18:02:00,
2013-03-03 10:10:00,59.4,48.0,30.02,SSE,162,2.0,2.0,66,0.00,,,0.00,Wunderground v.1.15,2013-03-03 18:10:00,
2013-03-03 10:17:00,59.5,48.1,30.02,SSE,161,2.0,2.0,66,0.00,,,0.00,Wunderground v.1.15,2013-03-03 18:17:00,
2013-03-03 10:23:00,59.4,48.0,30.02,SSE,161,1.0,2.0,66,0.00,,,0.00,Wunderground v.1.15,2013-03-03 18:23:00,
2013-03-03 10:29:00,58.9,49.0,30.03,South,171,7.0,-999.0,69,-99.99,,,0.00,weatherlink.com 1.10,2013-03-03 18:29:00,
2013-03-03 10:35:00,58.1,48.7,30.03,South,187,4.0,4.0,71,0.00,,,0.00,Wunderground v.1.15,2013-03-03 18:35:00,
2013-03-03 10:40:00,57.5,48.5,30.03,South,187,2.0,4.0,72,0.00,,,0.00,Wunderground v.1.15,2013-03-03 18:40:00,
2013-03-03 10:47:00,57.2,48.3,30.03,South,187,1.0,6.0,72,0.00,,,0.00,Wunderground v.1.15,2013-03-03 18:47:00,
2013-03-03 10:53:00,57.0,48.1,30.03,South,187,2.0,2.0,72,0.00,,,0.00,Wunderground v.1.15,2013-03-03 18:53:00,
2013-03-03 11:00:00,56.8,47.1,30.04,South,184,1.0,1.0,70,0.00,,,0.00,Wunderground v.1.15,2013-03-03 19:00:00,
2013-03-03 11:07:00,56.5,46.8,30.03,South,183,2.0,4.0,70,0.00,,,0.00,Wunderground v.1.15,2013-03-03 19:07:00,
2013-03-03 11:13:00,56.5,47.2,30.03,South,175,1.0,8.0,71,0.00,,,0.00,Wunderground v.1.15,2013-03-03 19:13:00,
2013-03-03 11:21:00,56.5,47.2,30.03,South,172,2.0,5.0,71,0.00,,,0.00,Wunderground v.1.15,2013-03-03 19:21:00,
2013-03-03 11:27:00,56.5,47.2,30.03,SE,134,2.0,5.0,71,0.00,,,0.00,Wunderground v.1.15,2013-03-03 19:27:00,
2013-03-03 11:33:00,56.8,47.1,30.03,SE,140,3.0,3.0,70,0.00,,,0.00,Wunderground v.1.15,2013-03-03 19:33:00,
2013-03-03 11:41:00,57.2,46.7,30.03,SE,141,2.0,2.0,68,0.00,,,0.00,Wunderground v.1.15,2013-03-03 19:41:00,
2013-03-03 11:46:00,57.4,46.5,30.03,SE,143,3.0,3.0,67,0.00,,,0.00,Wunderground v.1.15,2013-03-03 19:46:00,
2013-03-03 11:53:00,57.6,46.7,30.03,SE,143,2.0,4.0,67,0.00,,,0.00,Wunderground v.1.15,2013-03-03 19:53:00,
2013-03-03 11:59:00,57.8,47.0,30.03,SE,133,7.0,-999.0,67,-99.99,,,0.00,weatherlink.com 1.10,2013-03-03 19:59:00,
2013-03-03 12:05:00,57.8,46.9,30.03,ESE,122,4.0,5.0,67,0.00,,,0.00,Wunderground v.1.15,2013-03-03 20:05:00,
2013-03-03 12:11:00,57.9,47.0,30.03,ESE,122,4.0,4.0,67,0.00,,,0.00,Wunderground v.1.15,2013-03-03 20:11:00,
2013-03-03 12:17:00,58.3,47.8,30.03,SE,128,2.0,4.0,68,0.00,,,0.00,Wunderground v.1.15,2013-03-03 20:17:00,
2013-03-03 12:23:00,58.8,48.3,30.03,SE,128,2.0,2.0,68,0.00,,,0.00,Wunderground v.1.15,2013-03-03 20:23:00,
2013-03-03 12:30:00,59.4,48.0,30.03,SE,129,2.0,2.0,66,0.00,,,0.00,Wunderground v.1.15,2013-03-03 20:30:00,
2013-03-03 12:37:00,59.8,48.4,30.03,SE,132,3.0,6.0,66,0.00,,,0.00,Wunderground v.1.15,2013-03-03 20:37:00,
2013-03-03 12:43:00,60.5,49.9,30.03,SSE,156,3.0,6.0,68,0.00,,,0.00,Wunderground v.1.15,2013-03-03 20:43:00,
2013-03-03 12:51:00,61.5,50.8,30.02,SSE,155,3.0,6.0,68,0.00,,,0.00,Wunderground v.1.15,2013-03-03 20:51:00,
2013-03-03 12:57:00,61.9,50.8,30.01,SE,124,4.0,6.0,67,0.00,,,0.00,Wunderground v.1.15,2013-03-03 20:57:00,
2013-03-03 13:03:00,61.9,50.4,30.01,SE,132,3.0,4.0,66,0.00,,,0.00,Wunderground v.1.15,2013-03-03 21:03:00,
2013-03-03 13:11:00,62.2,50.3,30.02,South,177,3.0,4.0,65,0.00,,,0.00,Wunderground v.1.15,2013-03-03 21:11:00,
2013-03-03 13:16:00,62.1,50.0,30.02,SE,131,1.0,-999.0,64,-99.99,,,0.00,weatherlink.com 1.10,2013-03-03 21:16:00,
2013-03-03 13:23:00,62.1,49.4,30.01,SE,144,3.0,4.0,63,0.00,,,0.00,Wunderground v.1.15,2013-03-03 21:23:00,
2013-03-03 13:31:00,62.0,50.1,30.01,SE,140,3.0,6.0,65,0.00,,,0.00,Wunderground v.1.15,2013-03-03 21:31:00,
2013-03-03 13:37:00,61.9,50.0,30.01,SSE,158,3.0,6.0,65,0.00,,,0.00,Wunderground v.1.15,2013-03-03 21:37:00,
2013-03-03 13:42:00,61.8,49.9,30.01,SSE,155,2.0,5.0,65,0.00,,,0.00,Wunderground v.1.15,2013-03-03 21:42:00,
2013-03-03 13:51:00,61.4,49.9,30.01,South,177,3.0,3.0,66,0.00,,,0.00,Wunderground v.1.15,2013-03-03 21:51:00,
2013-03-03 13:57:00,61.2,48.1,30.01,SSE,149,4.0,8.0,62,0.00,,,0.00,Wunderground v.1.15,2013-03-03 21:57:00,
2013-03-03 14:02:00,61.2,48.1,30.01,SSE,155,5.0,8.0,62,0.00,,,0.00,Wunderground v.1.15,2013-03-03 22:02:00,
2013-03-03 14:11:00,61.1,48.4,30.01,South,169,4.0,4.0,63,0.00,,,0.00,Wunderground v.1.15,2013-03-03 22:11:00,
2013-03-03 14:16:00,61.0,48.0,30.02,SSE,167,6.0,-999.0,62,-99.99,,,0.00,weatherlink.com 1.10,2013-03-03 22:16:00,
2013-03-03 14:23:00,61.0,48.3,30.01,South,175,3.0,4.0,63,0.00,,,0.00,Wunderground v.1.15,2013-03-03 22:23:00,
2013-03-03 14:31:00,61.0,48.0,30.01,ESE,121,1.0,-999.0,62,-99.99,,,0.00,weatherlink.com 1.10,2013-03-03 22:31:00,
2013-03-03 14:37:00,61.3,48.2,30.01,SE,125,4.0,4.0,62,0.00,,,0.00,Wunderground v.1.15,2013-03-03 22:37:00,
2013-03-03 14:43:00,61.9,47.9,30.01,SSE,161,3.0,5.0,60,0.00,,,0.00,Wunderground v.1.15,2013-03-03 22:43:00,
2013-03-03 14:48:00,62.2,48.0,30.02,SE,135,2.0,-999.0,61,-99.99,,,0.00,weatherlink.com 1.10,2013-03-03 22:48:00,
2013-03-03 14:53:00,62.4,49.6,30.01,SE,144,3.0,4.0,63,0.00,,,0.00,Wunderground v.1.15,2013-03-03 22:53:00,
2013-03-03 15:01:00,62.2,49.9,30.01,SSE,166,3.0,3.0,64,0.00,,,0.00,Wunderground v.1.15,2013-03-03 23:01:00,
2013-03-03 15:07:00,62.1,50.2,30.01,SE,144,2.0,7.0,65,0.00,,,0.00,Wunderground v.1.15,2013-03-03 23:07:00,
2013-03-03 15:12:00,62.0,50.1,30.01,SE,142,2.0,4.0,65,0.00,,,0.00,Wunderground v.1.15,2013-03-03 23:12:00,
2013-03-03 15:18:00,61.8,50.0,30.01,SE,136,1.0,-999.0,66,-99.99,,,0.00,weatherlink.com 1.10,2013-03-03 23:18:00,
2013-03-03 15:23:00,61.6,50.1,30.01,SE,137,1.0,1.0,66,0.00,,,0.00,Wunderground v.1.15,2013-03-03 23:23:00,
2013-03-03 15:31:00,61.4,50.3,30.01,SE,136,1.0,5.0,67,0.00,,,0.00,Wunderground v.1.15,2013-03-03 23:31:00,
2013-03-03 15:37:00,61.0,50.4,30.01,SE,136,2.0,5.0,68,0.00,,,0.00,Wunderground v.1.15,2013-03-03 23:37:00,
2013-03-03 15:43:00,60.7,50.1,30.01,ESE,122,3.0,4.0,68,0.00,,,0.00,Wunderground v.1.15,2013-03-03 23:43:00,
2013-03-03 15:48:00,60.2,50.0,30.01,ESE,123,4.0,-999.0,68,-99.99,,,0.00,weatherlink.com 1.10,2013-03-03 23:48:00,
2013-03-03 15:55:00,60.5,49.9,30.00,ESE,123,3.0,6.0,68,0.00,,,0.00,Wunderground v.1.15,2013-03-03 23:55:00,
2013-03-03 16:01:00,60.8,49.8,30.00,ESE,107,4.0,4.0,67,0.00,,,0.00,Wunderground v.1.15,2013-03-04 00:01:00,
2013-03-03 16:07:00,61.0,49.6,30.00,ESE,111,3.0,7.0,66,0.00,,,0.00,Wunderground v.1.15,2013-03-04 00:07:00,
2013-03-03 16:13:00,61.4,49.9,30.00,ESE,113,2.0,2.0,66,0.00,,,0.00,Wunderground v.1.15,2013-03-04 00:13:00,
2013-03-03 16:19:00,61.7,49.0,30.00,ESE,116,4.0,-999.0,64,-99.99,,,0.00,weatherlink.com 1.10,2013-03-04 00:19:00,
2013-03-03 16:24:00,61.5,49.2,30.00,ESE,115,2.0,2.0,64,0.00,,,0.00,Wunderground v.1.15,2013-03-04 00:24:00,
2013-03-03 16:32:00,61.6,49.3,30.00,ESE,123,1.0,1.0,64,0.00,,,0.00,Wunderground v.1.15,2013-03-04 00:32:00,
2013-03-03 16:40:00,61.5,49.2,30.00,ESE,123,0.0,1.0,64,0.00,,,0.00,Wunderground v.1.15,2013-03-04 00:40:00,
2013-03-03 16:47:00,61.1,49.2,30.00,ESE,123,1.0,2.0,65,0.00,,,0.00,Wunderground v.1.15,2013-03-04 00:47:00,
2013-03-03 16:52:00,60.4,49.0,30.00,SE,132,1.0,2.0,66,0.00,,,0.00,Wunderground v.1.15,2013-03-04 00:52:00,
2013-03-03 17:03:00,59.3,48.3,30.00,SE,133,1.0,1.0,67,0.00,,,0.00,Wunderground v.1.15,2013-03-04 01:03:00,
2013-03-03 17:10:00,58.9,48.7,30.00,SE,133,1.0,4.0,69,0.00,,,0.00,Wunderground v.1.15,2013-03-04 01:10:00,
2013-03-03 17:17:00,58.6,48.5,30.00,SE,133,0.0,2.0,69,0.00,,,0.00,Wunderground v.1.15,2013-03-04 01:17:00,
2013-03-03 17:23:00,58.5,48.7,30.00,SE,133,1.0,1.0,70,0.00,,,0.00,Wunderground v.1.15,2013-03-04 01:23:00,
2013-03-03 17:30:00,58.3,48.6,30.00,SE,132,1.0,4.0,70,0.00,,,0.00,Wunderground v.1.15,2013-03-04 01:30:00,
2013-03-03 17:37:00,58.1,48.4,30.00,SE,132,0.0,1.0,70,0.00,,,0.00,Wunderground v.1.15,2013-03-04 01:37:00,
2013-03-03 17:42:00,57.8,48.1,30.00,SE,132,1.0,1.0,70,0.00,,,0.00,Wunderground v.1.15,2013-03-04 01:42:00,
2013-03-03 17:50:00,57.6,48.0,30.01,SE,132,0.0,-999.0,70,-99.99,,,0.00,weatherlink.com 1.10,2013-03-04 01:50:00,
2013-03-03 17:55:00,57.3,48.0,30.01,SE,132,0.0,0.0,71,0.00,,,0.00,Wunderground v.1.15,2013-03-04 01:55:00,
2013-03-03 18:01:00,57.0,48.1,30.01,SE,132,0.0,0.0,72,0.00,,,0.00,Wunderground v.1.15,2013-03-04 02:01:00,
2013-03-03 18:07:00,56.7,47.8,30.01,SE,132,0.0,0.0,72,0.00,,,0.00,Wunderground v.1.15,2013-03-04 02:07:00,
2013-03-03 18:13:00,56.4,47.9,30.01,SE,133,0.0,0.0,73,0.00,,,0.00,Wunderground v.1.15,2013-03-04 02:13:00,
2013-03-03 18:20:00,55.9,47.0,30.01,SE,133,0.0,-999.0,73,-99.99,,,0.00,weatherlink.com 1.10,2013-03-04 02:20:00,
2013-03-03 18:27:00,55.5,47.3,30.01,SE,132,0.0,0.0,74,0.00,,,0.00,Wunderground v.1.15,2013-03-04 02:27:00,
2013-03-03 18:33:00,55.2,47.4,30.01,SE,132,0.0,0.0,75,0.00,,,0.00,Wunderground v.1.15,2013-03-04 02:33:00,
2013-03-03 18:41:00,54.7,46.9,30.01,SE,132,0.0,0.0,75,0.00,,,0.00,Wunderground v.1.15,2013-03-04 02:41:00,
2013-03-03 18:47:00,54.3,46.9,30.01,SE,133,0.0,0.0,76,0.00,,,0.00,Wunderground v.1.15,2013-03-04 02:47:00,
2013-03-03 18:53:00,54.0,47.0,30.01,SE,133,0.0,0.0,77,0.00,,,0.00,Wunderground v.1.15,2013-03-04 02:53:00,
2013-03-03 19:01:00,53.4,46.7,30.02,SE,132,0.0,0.0,78,0.00,,,0.00,Wunderground v.1.15,2013-03-04 03:01:00,
2013-03-03 19:06:00,53.2,47.0,30.02,SE,132,0.0,-999.0,79,-99.99,,,0.00,weatherlink.com 1.10,2013-03-04 03:06:00,
2013-03-03 19:11:00,53.0,47.0,30.02,SE,132,0.0,0.0,80,0.00,,,0.00,Wunderground v.1.15,2013-03-04 03:11:00,
2013-03-03 19:16:00,52.7,47.0,30.02,SE,132,0.0,0.0,81,0.00,,,0.00,Wunderground v.1.15,2013-03-04 03:16:00,
2013-03-03 19:22:00,52.5,47.0,30.02,SE,132,0.0,-999.0,81,-99.99,,,0.00,weatherlink.com 1.10,2013-03-04 03:22:00,
2013-03-03 19:27:00,52.4,47.1,30.02,SE,132,0.0,0.0,82,0.00,,,0.00,Wunderground v.1.15,2013-03-04 03:27:00,
2013-03-03 19:33:00,52.2,46.9,30.02,SE,132,0.0,0.0,82,0.00,,,0.00,Wunderground v.1.15,2013-03-04 03:33:00,
2013-03-03 19:41:00,52.1,46.8,30.02,SE,133,0.0,0.0,82,0.00,,,0.00,Wunderground v.1.15,2013-03-04 03:41:00,
2013-03-03 19:47:00,51.9,46.9,30.02,SE,132,0.0,0.0,83,0.00,,,0.00,Wunderground v.1.15,2013-03-04 03:47:00,
2013-03-03 19:53:00,51.8,46.5,30.02,SE,132,0.0,0.0,82,0.00,,,0.00,Wunderground v.1.15,2013-03-04 03:53:00,
2013-03-03 20:01:00,51.4,46.4,30.02,SE,132,0.0,0.0,83,0.00,,,0.00,Wunderground v.1.15,2013-03-04 04:01:00,
2013-03-03 20:06:00,51.2,46.0,30.02,SE,132,0.0,-999.0,83,-99.99,,,0.00,weatherlink.com 1.10,2013-03-04 04:06:00,
2013-03-03 20:11:00,51.0,46.0,30.02,SE,133,0.0,0.0,83,0.00,,,0.00,Wunderground v.1.15,2013-03-04 04:11:00,
2013-03-03 20:17:00,50.7,46.0,30.02,SE,132,0.0,0.0,84,0.00,,,0.00,Wunderground v.1.15,2013-03-04 04:17:00,
2013-03-03 20:22:00,50.4,46.0,30.02,SE,132,0.0,-999.0,84,-99.99,,,0.00,weatherlink.com 1.10,2013-03-04 04:22:00,
2013-03-03 20:27:00,50.1,45.5,30.03,SE,132,0.0,0.0,84,0.00,,,0.00,Wunderground v.1.15,2013-03-04 04:27:00,
2013-03-03 20:32:00,49.8,45.5,30.03,SE,132,0.0,0.0,85,0.00,,,0.00,Wunderground v.1.15,2013-03-04 04:32:00,
2013-03-03 20:41:00,49.5,45.5,30.03,SE,132,0.0,0.0,86,0.00,,,0.00,Wunderground v.1.15,2013-03-04 04:41:00,
2013-03-03 20:47:00,49.3,45.3,30.03,SE,132,0.0,0.0,86,0.00,,,0.00,Wunderground v.1.15,2013-03-04 04:47:00,
2013-03-03 20:52:00,49.2,46.0,30.03,SE,133,0.0,-999.0,87,-99.99,,,0.00,weatherlink.com 1.10,2013-03-04 04:52:00,
2013-03-03 20:57:00,49.2,45.5,30.03,SE,133,0.0,0.0,87,0.00,,,0.00,Wunderground v.1.15,2013-03-04 04:57:00,
2013-03-03 21:01:00,49.2,45.5,30.03,SE,132,0.0,0.0,87,0.00,,,0.00,Wunderground v.1.15,2013-03-04 05:01:00,
2013-03-03 21:02:00,49.2,45.8,30.03,SE,133,0.0,0.0,88,0.00,,,0.00,Wunderground v.1.15,2013-03-04 05:02:00,
2013-03-03 21:07:00,49.2,45.8,30.03,SE,132,0.0,0.0,88,0.00,,,0.00,Wunderground v.1.15,2013-03-04 05:07:00,
2013-03-03 21:13:00,49.4,46.0,30.04,SE,132,0.0,0.0,88,0.00,,,0.00,Wunderground v.1.15,2013-03-04 05:13:00,
2013-03-03 21:17:00,49.4,46.0,30.04,SE,133,0.0,0.0,88,0.00,,,0.00,Wunderground v.1.15,2013-03-04 05:17:00,
2013-03-03 21:22:00,49.5,46.1,30.04,SE,133,0.0,0.0,88,0.00,,,0.00,Wunderground v.1.15,2013-03-04 05:22:00,
2013-03-03 21:30:00,49.7,46.3,30.04,SE,133,0.0,0.0,88,0.00,,,0.00,Wunderground v.1.15,2013-03-04 05:30:00,
2013-03-03 21:37:00,49.8,46.4,30.04,SE,132,0.0,0.0,88,0.00,,,0.00,Wunderground v.1.15,2013-03-04 05:37:00,
2013-03-03 21:43:00,49.9,46.5,30.04,SE,133,0.0,0.0,88,0.00,,,0.00,Wunderground v.1.15,2013-03-04 05:43:00,
2013-03-03 21:51:00,49.9,46.5,30.04,SE,133,0.0,0.0,88,0.00,,,0.00,Wunderground v.1.15,2013-03-04 05:51:00,
2013-03-03 21:57:00,50.0,46.6,30.04,SE,132,0.0,0.0,88,0.00,,,0.00,Wunderground v.1.15,2013-03-04 05:57:00,
2013-03-03 22:03:00,50.1,46.7,30.04,SE,132,0.0,0.0,88,0.00,,,0.00,Wunderground v.1.15,2013-03-04 06:03:00,
2013-03-03 22:09:00,50.1,46.0,30.04,SE,133,0.0,-999.0,87,-99.99,,,0.00,weatherlink.com 1.10,2013-03-04 06:09:00,
2013-03-03 22:17:00,50.2,46.5,30.05,SE,132,0.0,0.0,87,0.00,,,0.00,Wunderground v.1.15,2013-03-04 06:17:00,
2013-03-03 22:23:00,50.2,46.5,30.04,SE,132,0.0,0.0,87,0.00,,,0.00,Wunderground v.1.15,2013-03-04 06:23:00,
2013-03-03 22:31:00,50.3,46.6,30.04,SE,133,0.0,0.0,87,0.00,,,0.00,Wunderground v.1.15,2013-03-04 06:31:00,
2013-03-03 22:37:00,50.3,46.6,30.04,SE,132,0.0,0.0,87,0.00,,,0.00,Wunderground v.1.15,2013-03-04 06:37:00,
2013-03-03 22:43:00,50.3,46.6,30.04,SE,133,0.0,0.0,87,0.00,,,0.00,Wunderground v.1.15,2013-03-04 06:43:00,
2013-03-03 22:51:00,50.2,46.5,30.04,SE,132,0.0,0.0,87,0.00,,,0.00,Wunderground v.1.15,2013-03-04 06:51:00,
2013-03-03 22:57:00,50.1,46.4,30.04,SE,132,0.0,0.0,87,0.00,,,0.00,Wunderground v.1.15,2013-03-04 06:57:00,
2013-03-03 23:03:00,49.9,45.9,30.04,SE,133,0.0,0.0,86,0.00,,,0.00,Wunderground v.1.15,2013-03-04 07:03:00,
2013-03-03 23:09:00,49.6,46.0,30.04,SE,132,0.0,-999.0,86,-99.99,,,0.00,weatherlink.com 1.10,2013-03-04 07:09:00,
2013-03-03 23:24:00,48.8,45.0,30.04,SE,132,0.0,-999.0,86,-99.99,,,0.00,weatherlink.com 1.10,2013-03-04 07:24:00,
2013-03-03 23:31:00,48.4,44.7,30.03,SE,132,0.0,0.0,87,0.00,,,0.00,Wunderground v.1.15,2013-03-04 07:31:00,
2013-03-03 23:37:00,48.0,44.3,30.03,SE,132,0.0,0.0,87,0.00,,,0.00,Wunderground v.1.15,2013-03-04 07:37:00,
2013-03-03 23:43:00,47.7,44.3,30.03,SE,133,0.0,0.0,88,0.00,,,0.00,Wunderground v.1.15,2013-03-04 07:43:00,
2013-03-03 23:51:00,47.2,43.8,30.03,SE,132,0.0,0.0,88,0.00,,,0.00,Wunderground v.1.15,2013-03-04 07:51:00,
2013-03-03 23:57:00,46.8,43.4,30.03,SE,132,0.0,0.0,88,0.00,,,0.00,Wunderground v.1.15,2013-03-04 07:57:00,